Alturas, CA

7:36 AM PDT on August 26, 2016 (GMT -0700)
Alturas Municipal

Weather History for KAAT - March, 2013

Change the Weather History Date:

Tuesday, March 26, 2013

  Actual Average Record
Temperature  
Mean Temperature 45 °F 39 °F  
Max Temperature 55 °F 54 °F 77 °F (1960)
Min Temperature 34 °F 25 °F 8 °F (1996)
Degree Days  
Heating Degree Days 20 26  
Month to date heating degree days 672 699  
Since 1 July heating degree days 5258 5566  
Cooling Degree Days 0 0  
Month to date cooling degree days 0 0  
Year to date cooling degree days 0 0  
Moisture  
Dew Point 36 °F    
Average Humidity 73    
Maximum Humidity 100    
Minimum Humidity 45    
Precipitation  
Precipitation 0.01 in 0.05 in 0.59 in (1971)
Month to date precipitation 0.13 1.24  
Year to date precipitation 0.86 4.34  
Sea Level Pressure  
Sea Level Pressure 29.92 in    
Wind  
Wind Speed 4 mph (West)    
Max Wind Speed 3 mph    
Max Gust Speed 5 mph    
Visibility 10 miles    
Events Rain    
T = Trace of Precipitation, MM = Missing Value Source: NWS Daily Summary

Daily Weather History Graph

Daily Weather History Graph

Search for Another Location

Airport or City:

Trip Planner

Search our weather history database for the weather conditions in past years. The results will help you decide how hot, cold, wet, or windy it might be!

Date:

Astronomy

Mar. 26, 2013 Rise Set
Actual Time 6:54 AM PDT 7:21 PM PDT
Civil Twilight 6:27 AM PDT 7:49 PM PDT
Nautical Twilight 5:54 AM PDT 8:21 PM PDT
Astronomical Twilight 5:20 AM PDT 8:55 PM PDT
Moon 7:04 PM PDT 6:14 AM PDT
Length of Visible Light 13h 22m
Length of Day
12h 26m
Full, 100% of the Moon is Illuminated
Mar 26
Full
Mar 27
Full
Apr 2
Last Quarter
Apr 10
New
Apr 18
First Quarter

Hourly Weather History & Observations

Time (PDT) Temp. Windchill Dew Point Humidity Pressure Visibility Wind Dir Wind Speed Gust Speed Precip Events Conditions
12:55 AM 41.0 °F 39.0 °F 34.0 °F 76% 29.88 in 10.0 mi SSW 3.5 mph - 0.00 in   Overcast
1:55 AM 39.9 °F - 36.0 °F 86% 29.87 in 10.0 mi Calm Calm - 0.00 in   Overcast
2:55 AM 39.9 °F - 36.0 °F 86% 29.87 in 10.0 mi Calm Calm - N/A   Overcast
3:55 AM 39.0 °F - 36.0 °F 89% 29.87 in 10.0 mi Calm Calm - N/A   Overcast
4:55 AM 39.0 °F 34.0 °F 37.0 °F 93% 29.87 in 10.0 mi WSW 6.9 mph - 0.00 in Rain Light Rain
5:55 AM 37.9 °F - 37.0 °F 97% 29.89 in 10.0 mi Calm Calm - 0.01 in   Overcast
6:31 AM 37.4 °F - 37.4 °F 100% 29.93 in 10.0 mi Calm Calm - N/A   Overcast
6:44 AM 37.4 °F - 37.4 °F 100% 29.93 in 10.0 mi Calm Calm - N/A   Overcast
6:55 AM 37.9 °F - 37.0 °F 97% 29.91 in 10.0 mi Calm Calm - N/A   Overcast
7:12 AM 39.2 °F - 37.4 °F 93% 29.94 in 10.0 mi Calm Calm - 0.00 in Rain Light Rain
7:23 AM 39.2 °F - 37.4 °F 93% 29.94 in 10.0 mi Calm Calm - 0.00 in Rain Light Rain
7:42 AM 39.2 °F - 37.4 °F 93% 29.94 in 9.0 mi Calm Calm - 0.00 in   Overcast
7:55 AM 39.0 °F - 37.9 °F 96% 29.92 in 10.0 mi Calm Calm - 0.00 in   Overcast
8:52 AM 41.0 °F - 37.4 °F 87% 29.94 in 10.0 mi Calm Calm - N/A   Overcast
8:55 AM 41.0 °F - 37.9 °F 89% 29.92 in 10.0 mi Calm Calm - N/A   Overcast
9:11 AM 41.0 °F - 37.4 °F 87% 29.95 in 10.0 mi Calm Calm - N/A   Overcast
9:55 AM 43.0 °F - 37.9 °F 82% 29.93 in 10.0 mi Calm Calm - N/A   Overcast
10:13 AM 44.6 °F - 37.4 °F 76% 29.96 in 10.0 mi Calm Calm - N/A   Overcast
10:23 AM 44.6 °F 43.1 °F 37.4 °F 76% 29.96 in 10.0 mi WNW 3.5 mph - N/A   Overcast
10:33 AM 44.6 °F - 37.4 °F 76% 29.96 in 10.0 mi Calm Calm - N/A   Overcast
10:55 AM 45.0 °F 41.8 °F 37.9 °F 76% 29.94 in 10.0 mi West 5.8 mph - N/A   Overcast
11:55 AM 46.0 °F 43.1 °F 37.0 °F 71% 29.95 in 10.0 mi SW 5.8 mph - N/A   Overcast
12:55 PM 48.9 °F - 36.0 °F 61% 29.93 in 10.0 mi ENE 4.6 mph - N/A   Overcast
1:55 PM 50.0 °F - 35.1 °F 57% 29.92 in 10.0 mi WSW 8.1 mph - N/A   Overcast
2:55 PM 53.1 °F - 35.1 °F 50% 29.89 in 10.0 mi North 4.6 mph - N/A   Mostly Cloudy
3:55 PM 54.0 °F - 33.1 °F 45% 29.88 in 10.0 mi Variable 4.6 mph - N/A   Mostly Cloudy
4:55 PM 53.1 °F - 32.0 °F 45% 29.88 in 10.0 mi WNW 9.2 mph - N/A   Overcast
5:55 PM 52.0 °F - 33.1 °F 49% 29.88 in 10.0 mi West 5.8 mph - N/A   Overcast
6:55 PM 51.1 °F - 34.0 °F 52% 29.89 in 10.0 mi West 12.7 mph - N/A   Overcast
7:55 PM 46.9 °F - 34.0 °F 61% 29.92 in 10.0 mi West 11.5 mph - N/A   Overcast
8:55 PM 45.0 °F 41.8 °F 34.0 °F 65% 29.94 in 10.0 mi West 5.8 mph - N/A   Mostly Cloudy
9:55 PM 42.1 °F 39.2 °F 33.1 °F 70% 29.96 in 10.0 mi SW 4.6 mph - N/A   Mostly Cloudy
10:55 PM 41.0 °F - 33.1 °F 73% 29.96 in 9.0 mi Calm Calm - N/A   Overcast
11:55 PM 37.0 °F - 32.0 °F 82% 29.96 in 10.0 mi Calm Calm - N/A   Overcast